[[{"header":{"parameterUnit":"m.s-1","parameterCategory":1,"la1":30.2991,"la2":30.254,"lo1":-89.0895,"lo2":-89.0444,"dy":0.0017,"dx":0.0017,"nx":28,"ny":28,"refTime":"2025-03-09T03:00:00:Z","depth":0,"parameterNumber":2,"parameterNumberName":"U-component_of_WINDS"},"data":[0,0,0,0,0,0,0,0,0,0,0,0,0,0,0,0,0,0,0,0,0,0,0,0,0,0,0,0,0,0,0,0,0,0,0,0,0,0,0,0,0,0,0,0,0,0,0,0,0,0,0,0,0,0,0,0,0,0,4.0377,4.0377,0,4.0406,4.0407,4.0407,4.0324,4.0322,4.0319,4.0317,4.0347,4.035,4.0354,0,0,0,0,0,0,0,0,0,0,0,0,0,4.025,4.0253,4.0376,4.0377,4.0377,4.0406,4.0407,4.0407,4.0325,4.0322,4.0319,4.0316,4.0346,4.035,4.0354,0,0,0,0,0,0,0,0,0,0,0,0,0,4.0295,4.0254,4.0376,4.034,4.0337,4.0406,4.0407,4.0407,4.0326,4.0322,4.0318,4.0314,4.0345,4.035,4.0354,4.046,0,0,4.0369,4.0371,0,0,0,0,0,0,0,0,4.0293,4.03,4.0345,4.0342,4.0339,4.0358,4.0373,4.0425,4.0327,4.033,4.0317,4.0312,4.0354,4.0358,4.0372,4.0462,4.0463,4.0369,4.0372,4.0374,4.0376,0,0,0,0,0,0,0,4.029,4.0298,4.0388,4.0346,4.0342,4.0322,4.0325,4.0383,4.0363,4.0329,4.0323,4.0328,4.0352,4.0367,4.0372,4.0464,4.0369,4.0374,4.0376,4.0378,4.0645,4.0649,0,0,0,0,0,0,4.0291,4.0296,4.0387,4.0389,4.0306,4.0328,4.033,4.0356,4.0362,4.0359,4.0331,4.0324,4.0361,4.0366,4.0373,4.0499,4.0374,4.0379,4.0382,4.0641,4.0646,4.0651,0,0,0,0,0,0,4.0289,4.03,4.0386,4.0341,4.035,4.0334,4.0363,4.0358,4.0374,4.0364,4.036,4.0351,4.0358,4.0366,4.044,4.0499,4.0381,4.0385,4.0636,4.0643,4.0649,4.0752,0,0,0,0,0,0,4.0286,4.03,4.0339,4.0343,4.0353,4.0453,4.0367,4.0362,4.0382,4.0373,4.0381,4.0378,4.0356,4.0433,4.0445,4.0503,4.0389,4.0631,4.0639,4.0647,4.0743,4.0761,4.0776,0,0,0,0,0,4.0281,4.0367,4.0342,4.0353,4.0402,4.0456,4.0462,4.0434,4.0387,4.0428,4.0421,4.0378,4.0491,4.0441,4.0454,4.0515,4.0627,4.0637,4.0646,4.0736,4.0758,4.0776,0,0,0,0,0,0,4.037,4.0366,4.0339,4.0427,4.0443,4.0442,4.0492,4.0458,4.0487,4.0477,4.0441,4.0444,4.0525,4.0527,4.0472,4.0619,4.0551,4.0563,4.0615,4.0636,4.0652,4.065,4.0393,0,0,0,0,0,4.04,4.0444,4.0438,4.0517,4.0526,4.0508,4.0531,4.0508,4.0523,4.0529,4.0528,4.0544,4.0583,4.0609,4.0644,4.0743,4.0745,4.0791,4.0808,4.0821,4.0833,4.0888,4.0909,4.0682,4.0682,4.0682,0,0,4.0462,4.0466,4.0495,4.0535,4.0544,4.0592,4.0514,4.0566,4.0601,4.0536,4.0607,4.0607,4.0623,4.0711,4.0749,4.0715,4.0896,4.0834,4.0845,4.0848,4.09,4.0921,4.094,4.0689,4.0687,4.0686,0,0,4.06,4.0606,4.0674,4.0685,4.0701,4.0688,4.0705,4.071,4.0708,4.0778,4.0731,4.0773,4.084,4.0854,4.087,4.1016,4.0978,4.1028,4.1115,4.1169,4.1187,4.1203,4.1256,4.1276,4.1039,4.104,4.104,0,4.0675,4.0744,4.0713,4.0769,4.0789,4.0733,4.0803,4.0815,4.0842,4.0857,4.0818,4.0903,4.0909,4.1001,4.1037,4.1051,4.107,4.1027,4.1187,4.1202,4.1216,4.1267,4.1288,4.1046,4.1045,4.1045,4.1044,0,4.0837,4.0885,4.0938,4.0966,4.0992,4.1054,4.1034,4.1064,4.104,4.1032,4.1106,4.1112,4.1148,4.1168,4.1145,4.1257,4.1236,4.1193,4.1123,4.1245,4.1292,4.1311,4.1055,4.1052,4.1051,4.1049,0,0,4.103,4.1042,4.1062,4.1075,4.1089,4.1126,4.1187,4.1224,4.1251,4.1272,4.1323,4.1383,4.1343,4.1362,4.1339,4.1387,4.1505,4.1338,4.1338,4.137,4.1632,4.1665,4.1688,4.148,4.1483,4.1486,4.1631,0,4.1167,4.1271,4.1247,4.135,4.1396,4.1345,4.1399,4.1414,4.1409,4.1448,4.1442,4.1486,4.143,4.1441,4.1485,4.1481,4.1557,4.147,4.1528,4.1531,4.1527,4.1713,4.1748,4.1884,4.1649,4.1652,4.1655,0,4.134,4.1369,4.1478,4.1487,4.1506,4.1554,4.1587,4.1624,4.1641,4.1634,4.1656,4.1625,4.1687,4.1617,4.1703,4.1644,4.1667,4.1669,4.1673,4.1678,4.1601,4.1724,4.1926,4.1948,4.1683,4.1681,4.1679,0,4.1473,4.1538,4.1613,4.1625,4.1637,4.1673,4.168,4.1693,4.1717,4.1746,4.1762,4.1797,4.1817,4.1846,4.1826,4.1777,4.1916,4.1844,4.1913,4.1914,4.1945,4.1943,4.2155,4.1958,4.1957,4.1957,4.1957,0,4.1629,4.1698,4.1673,4.1718,4.1795,4.1766,4.1843,4.1844,4.1857,4.1903,4.186,4.1904,4.1875,4.1917,4.1902,4.1976,4.1985,4.1982,4.1978,4.1987,4.1987,4.2001,4.1992,4.1962,4.1961,4.196,4.1959,0,4.179,4.1775,4.1853,4.1859,4.1862,4.1919,4.1924,4.1967,4.196,4.2019,4.2031,4.202,4.2067,4.205,4.2101,4.2091,4.2186,4.2168,4.2181,4.2177,4.2248,4.2242,4.2477,4.2507,4.2289,4.2291,4.2293,0,4.1891,4.1943,4.1955,4.1983,4.1994,4.2039,4.2064,4.2038,4.2067,4.2092,4.2132,4.2176,4.221,4.2289,4.2286,4.2325,4.2308,4.2388,4.2314,4.2322,4.2312,4.2309,4.2315,4.2403,4.2406,4.2408,4.2409,0,4.2073,4.2064,4.2101,4.2138,4.217,4.2197,4.2221,4.2246,4.2222,4.2256,4.2305,4.2331,4.2384,4.2429,4.2465,4.2472,4.2438,4.2433,4.2451,4.2462,4.2468,4.2467,4.2223,4.2428,4.2426,4.2425,4.2424,4.2423,4.2208,4.2253,4.2269,4.2314,4.2329,4.2353,4.2395,4.2393,4.2433,4.2475,4.2457,4.2514,4.2532,4.2576,4.2589,4.2634,4.2603,4.2629,4.2636,4.2643,4.2653,4.246,4.264,4.2639,4.2639,4.2638,4.2638,0,4.2389,4.2398,4.2439,4.2474,4.251,4.2475,4.25,4.2532,4.2583,4.2602,4.2637,4.2694,4.2738,4.2739,4.278,4.2816,4.2802,4.2828,4.2826,4.2829,4.2677,4.2658,4.2839,4.2839,4.2839,4.2839,4.2839,4.2839,4.2488,4.2563,4.2556,4.2639,4.2647,4.2703,4.2721,4.2743,4.2759,4.2825,4.2861,4.2862,4.2875,4.2917,4.2956,4.2955,4.2973,4.3006,4.3,4.2859,4.2839,4.282,4.2802,4.301,4.301,4.3147,4.3149,4.315]},{"header":{"parameterUnit":"m.s-1","parameterCategory":1,"la1":30.2991,"la2":30.254,"lo1":-89.0895,"lo2":-89.0444,"dy":0.0017,"dx":0.0017,"nx":28,"ny":28,"refTime":"2025-03-09T03:00:00:Z","depth":0,"parameterNumber":3,"parameterNumberName":"V-component_of_WINDS"},"data":[0,0,0,0,0,0,0,0,0,0,0,0,0,0,0,0,0,0,0,0,0,0,0,0,0,0,0,0,0,0,0,0,0,0,0,0,0,0,0,0,0,0,0,0,0,0,0,0,0,0,0,0,0,0,0,0,0,0,-5.205,-5.205,0,-5.2105,-5.2106,-5.2106,-5.2076,-5.2074,-5.2073,-5.2071,-5.2126,-5.2129,-5.2132,0,0,0,0,0,0,0,0,0,0,0,0,0,-5.1916,-5.1918,-5.205,-5.205,-5.2051,-5.2105,-5.2106,-5.2107,-5.2076,-5.2074,-5.2072,-5.2071,-5.2125,-5.2128,-5.2132,0,0,0,0,0,0,0,0,0,0,0,0,0,-5.1973,-5.1919,-5.2049,-5.2042,-5.2042,-5.2105,-5.2106,-5.2107,-5.2077,-5.2074,-5.2072,-5.207,-5.2124,-5.2128,-5.2132,-5.2204,0,0,-5.2145,-5.2147,0,0,0,0,0,0,0,0,-5.1969,-5.1978,-5.2043,-5.2043,-5.2043,-5.2081,-5.2079,-5.2139,-5.2077,-5.2063,-5.2071,-5.2069,-5.2113,-5.2118,-5.2133,-5.2207,-5.2209,-5.2146,-5.2148,-5.215,-5.2152,0,0,0,0,0,0,0,-5.1966,-5.1975,-5.2071,-5.2044,-5.2044,-5.2036,-5.2042,-5.209,-5.21,-5.2064,-5.2062,-5.207,-5.2112,-5.2129,-5.2134,-5.221,-5.2146,-5.215,-5.2152,-5.2154,-5.2347,-5.235,0,0,0,0,0,0,-5.1962,-5.1972,-5.207,-5.2073,-5.2,-5.204,-5.2046,-5.2071,-5.21,-5.2102,-5.2071,-5.2068,-5.2123,-5.2129,-5.2136,-5.2223,-5.215,-5.2154,-5.2157,-5.2345,-5.2348,-5.2351,0,0,0,0,0,0,-5.196,-5.1971,-5.2067,-5.2022,-5.2034,-5.2045,-5.2073,-5.2074,-5.209,-5.2105,-5.2106,-5.2087,-5.2121,-5.213,-5.2188,-5.2225,-5.2156,-5.216,-5.2342,-5.2346,-5.2349,-5.2398,0,0,0,0,0,0,-5.1956,-5.1971,-5.1998,-5.2023,-5.2036,-5.2119,-5.2075,-5.2076,-5.2098,-5.2094,-5.212,-5.2122,-5.212,-5.2182,-5.2192,-5.2229,-5.2164,-5.2338,-5.2343,-5.2348,-5.2393,-5.2403,-5.2411,0,0,0,0,0,-5.1951,-5.2009,-5.2,-5.2012,-5.2071,-5.2121,-5.2129,-5.2127,-5.2101,-5.2129,-5.2139,-5.2121,-5.2219,-5.2188,-5.22,-5.2239,-5.2336,-5.2342,-5.2348,-5.2389,-5.2401,-5.2411,0,0,0,0,0,0,-5.1987,-5.2012,-5.2002,-5.207,-5.2094,-5.2116,-5.2151,-5.2139,-5.217,-5.2165,-5.2161,-5.2167,-5.2228,-5.2239,-5.2204,-5.231,-5.2274,-5.2282,-5.2301,-5.2313,-5.2321,-5.2318,-5.2167,0,0,0,0,0,-5.2003,-5.2042,-5.2061,-5.2119,-5.2132,-5.214,-5.2161,-5.2158,-5.2182,-5.2192,-5.2206,-5.2229,-5.2266,-5.229,-5.2324,-5.2395,-5.24,-5.2427,-5.2436,-5.2444,-5.2451,-5.249,-5.2503,-5.2369,-5.2369,-5.2369,0,0,-5.2036,-5.2054,-5.2079,-5.2127,-5.2145,-5.2186,-5.2148,-5.2192,-5.2222,-5.2198,-5.2255,-5.2266,-5.2292,-5.2357,-5.2386,-5.2368,-5.2489,-5.2451,-5.2457,-5.246,-5.2497,-5.251,-5.2521,-5.2373,-5.2373,-5.2372,0,0,-5.2117,-5.2135,-5.2185,-5.2205,-5.2233,-5.2238,-5.2251,-5.2275,-5.2282,-5.2339,-5.2322,-5.2357,-5.242,-5.2439,-5.2458,-5.2548,-5.2533,-5.2559,-5.2607,-5.2645,-5.2656,-5.2665,-5.2698,-5.271,-5.2566,-5.2566,-5.2567,0,-5.2154,-5.2215,-5.2212,-5.2259,-5.228,-5.2262,-5.2313,-5.2332,-5.237,-5.2385,-5.2365,-5.2444,-5.246,-5.253,-5.2552,-5.2567,-5.2582,-5.2556,-5.2655,-5.2664,-5.2673,-5.2704,-5.2716,-5.2569,-5.2569,-5.2569,-5.2569,0,-5.2259,-5.2302,-5.2339,-5.2378,-5.2404,-5.2452,-5.2457,-5.2484,-5.2478,-5.2486,-5.2544,-5.2563,-5.2601,-5.2618,-5.2612,-5.2688,-5.2676,-5.2655,-5.2618,-5.2688,-5.2718,-5.273,-5.2574,-5.2573,-5.2572,-5.2571,0,0,-5.2364,-5.2402,-5.2416,-5.2433,-5.2464,-5.2497,-5.2545,-5.2583,-5.2606,-5.2633,-5.2674,-5.2728,-5.2709,-5.273,-5.2727,-5.2761,-5.2832,-5.2736,-5.2736,-5.2754,-5.2917,-5.2933,-5.2947,-5.2823,-5.2825,-5.2827,-5.2915,0,-5.2447,-5.2532,-5.2532,-5.261,-5.2649,-5.2633,-5.2675,-5.2698,-5.2706,-5.2741,-5.275,-5.2789,-5.2761,-5.2774,-5.2806,-5.2817,-5.2865,-5.281,-5.286,-5.2862,-5.2854,-5.2962,-5.2979,-5.3062,-5.2927,-5.2929,-5.293,0,-5.2556,-5.2588,-5.267,-5.2697,-5.2713,-5.2751,-5.2787,-5.282,-5.2847,-5.285,-5.2875,-5.2867,-5.2915,-5.2877,-5.2944,-5.2907,-5.2927,-5.2936,-5.2939,-5.2943,-5.29,-5.2971,-5.3088,-5.3101,-5.2948,-5.2947,-5.2945,0,-5.2625,-5.2688,-5.2746,-5.2762,-5.2794,-5.2821,-5.2835,-5.286,-5.2883,-5.2915,-5.293,-5.2966,-5.2986,-5.3014,-5.3016,-5.2988,-5.3085,-5.3046,-5.3089,-5.3089,-5.311,-5.3109,-5.3233,-5.3123,-5.3123,-5.3122,-5.3122,0,-5.2718,-5.2769,-5.2778,-5.2813,-5.287,-5.287,-5.2926,-5.2938,-5.296,-5.2998,-5.2985,-5.3021,-5.3021,-5.3058,-5.3059,-5.3115,-5.3124,-5.3129,-5.3128,-5.313,-5.313,-5.3143,-5.3138,-5.3126,-5.3125,-5.3124,-5.3124,0,-5.2805,-5.2812,-5.2875,-5.2901,-5.2908,-5.2949,-5.2971,-5.3005,-5.3013,-5.306,-5.3072,-5.3083,-5.3126,-5.3131,-5.3179,-5.318,-5.3248,-5.3242,-5.324,-5.3239,-5.3282,-5.3278,-5.342,-5.3439,-5.3315,-5.3317,-5.3318,0,-5.2864,-5.2903,-5.2934,-5.2959,-5.2975,-5.3015,-5.304,-5.3041,-5.3067,-5.3101,-5.3131,-5.3172,-5.3205,-5.3273,-5.3286,-5.3323,-5.3318,-5.3365,-5.3323,-5.3324,-5.332,-5.3318,-5.3322,-5.3373,-5.3375,-5.3376,-5.3377,0,-5.2969,-5.2972,-5.3008,-5.3046,-5.3076,-5.3106,-5.3134,-5.3155,-5.316,-5.3189,-5.3233,-5.3259,-5.331,-5.3351,-5.3388,-5.3402,-5.3391,-5.339,-5.3402,-5.3404,-5.3402,-5.3404,-5.3262,-5.3386,-5.3385,-5.3385,-5.3384,-5.3384,-5.3045,-5.3079,-5.3107,-5.3148,-5.317,-5.3196,-5.323,-5.3243,-5.3279,-5.3321,-5.3319,-5.3368,-5.3394,-5.3443,-5.346,-5.3498,-5.3482,-5.35,-5.3504,-5.3509,-5.3514,-5.3396,-5.3505,-5.3504,-5.3504,-5.3504,-5.3504,0,-5.315,-5.3167,-5.3205,-5.3246,-5.3278,-5.3265,-5.3296,-5.3324,-5.3367,-5.3393,-5.3426,-5.3477,-5.3517,-5.3533,-5.3573,-5.36,-5.3596,-5.361,-5.3608,-5.3612,-5.3525,-5.3511,-5.3613,-5.3613,-5.3613,-5.3613,-5.3613,-5.3613,-5.3208,-5.3267,-5.3273,-5.3342,-5.3358,-5.3406,-5.3425,-5.345,-5.3471,-5.3528,-5.3562,-5.3573,-5.3595,-5.3637,-5.3673,-5.3677,-5.3692,-5.371,-5.3711,-5.3629,-5.3618,-5.3608,-5.3594,-5.3713,-5.3713,-5.3795,-5.3796,-5.3797]}]]